Location: Devargunta
(16.7631°N, 80.9077°E)
Time: 19:52:06
(UTC+00:00)

Cosmos 1844 - Pass Details

Date: 19 January 2021
Orbit: 821 x 869 km, 70.9° (Epoch: 28 February)

Event Time Altitude Azimuth Distance (km) Brightness Sun altitude
Exits shadow 23:39:19 - 351° (N) 2,590 6.0 -21.2°
Reaches altitude 10° 23:39:32 10° 352° (N) 2,509 5.9 -21.2°
Maximum altitude 23:45:15 63° 72° (ENE) 962 4.2 -19.9°
Drops below altitude 10° 23:50:55 10° 153° (SSE) 2,491 6.7 -18.6°
Sets 23:53:24 0° 156° (SSE) 3,421 7.5 -18.0°
